Time,TemperatureF,DewpointF,PressureIn,WindDirection,WindDirectionDegrees,WindSpeedMPH,WindSpeedGustMPH,Humidity,HourlyPrecipIn,Conditions,Clouds,dailyrainin,SolarRadiationWatts/m^2,SoftwareType,DateUTC
2013-03-11 00:02:00,41.3,34.0,30.25,SSE,152,0.0,-999.0,75,-99.99,,,0.00,0,weatherlink.com 1.10,2013-03-11 07:02:00,
2013-03-11 00:17:00,41.3,34.0,30.25,SSE,152,4.0,-999.0,76,-99.99,,,0.00,0,weatherlink.com 1.10,2013-03-11 07:17:00,
2013-03-11 00:34:00,40.4,33.0,30.25,SSE,152,0.0,-999.0,76,-99.99,,,0.00,0,weatherlink.com 1.10,2013-03-11 07:34:00,
2013-03-11 00:47:00,39.5,34.0,30.25,SSE,152,0.0,-999.0,79,-99.99,,,0.00,0,weatherlink.com 1.10,2013-03-11 07:47:00,
2013-03-11 01:02:00,39.0,33.0,30.26,SSE,152,0.0,-999.0,80,-99.99,,,0.00,0,weatherlink.com 1.10,2013-03-11 08:02:00,
2013-03-11 01:17:00,40.8,35.0,30.26,SSE,152,0.0,-999.0,79,-99.99,,,0.00,0,weatherlink.com 1.10,2013-03-11 08:17:00,
2013-03-11 01:32:00,40.0,34.0,30.25,SSE,152,4.0,-999.0,78,-99.99,,,0.00,0,weatherlink.com 1.10,2013-03-11 08:32:00,
2013-03-11 01:47:00,40.3,34.0,30.26,SSE,152,0.0,-999.0,77,-99.99,,,0.00,0,weatherlink.com 1.10,2013-03-11 08:47:00,
2013-03-11 02:02:00,40.6,35.0,30.25,SSE,152,2.0,-999.0,80,-99.99,,,0.00,0,weatherlink.com 1.10,2013-03-11 09:02:00,
2013-03-11 02:17:00,40.4,35.0,30.25,SSE,152,0.0,-999.0,82,-99.99,,,0.00,0,weatherlink.com 1.10,2013-03-11 09:17:00,
2013-03-11 02:32:00,41.9,36.0,30.25,SSE,152,0.0,-999.0,79,-99.99,,,0.00,0,weatherlink.com 1.10,2013-03-11 09:32:00,
2013-03-11 02:47:00,41.8,35.0,30.25,SSE,152,2.0,-999.0,76,-99.99,,,0.00,0,weatherlink.com 1.10,2013-03-11 09:47:00,
2013-03-11 03:02:00,39.8,34.0,30.24,South,176,5.0,-999.0,81,-99.99,,,0.00,0,weatherlink.com 1.10,2013-03-11 10:02:00,
2013-03-11 03:17:00,42.0,36.0,30.24,South,177,0.0,-999.0,79,-99.99,,,0.00,0,weatherlink.com 1.10,2013-03-11 10:17:00,
2013-03-11 03:32:00,42.5,36.0,30.24,South,177,4.0,-999.0,78,-99.99,,,0.00,0,weatherlink.com 1.10,2013-03-11 10:32:00,
2013-03-11 03:47:00,42.2,35.0,30.23,South,177,1.0,-999.0,77,-99.99,,,0.00,0,weatherlink.com 1.10,2013-03-11 10:47:00,
2013-03-11 04:02:00,42.2,36.0,30.23,South,177,0.0,-999.0,78,-99.99,,,0.00,0,weatherlink.com 1.10,2013-03-11 11:02:00,
2013-03-11 04:17:00,41.1,36.0,30.23,South,177,0.0,-999.0,81,-99.99,,,0.00,0,weatherlink.com 1.10,2013-03-11 11:17:00,
2013-03-11 04:32:00,40.8,35.0,30.23,South,177,0.0,-999.0,80,-99.99,,,0.00,0,weatherlink.com 1.10,2013-03-11 11:32:00,
2013-03-11 05:02:00,40.2,36.0,30.23,SSW,213,4.0,-999.0,84,-99.99,,,0.00,0,weatherlink.com 1.10,2013-03-11 12:02:00,
2013-03-11 05:17:00,41.5,37.0,30.22,SSW,213,4.0,-999.0,83,-99.99,,,0.00,0,weatherlink.com 1.10,2013-03-11 12:17:00,
2013-03-11 05:32:00,40.5,35.0,30.22,SSW,213,3.0,-999.0,82,-99.99,,,0.00,0,weatherlink.com 1.10,2013-03-11 12:32:00,
2013-03-11 05:47:00,41.3,36.0,30.23,SSW,213,2.0,-999.0,81,-99.99,,,0.00,0,weatherlink.com 1.10,2013-03-11 12:47:00,
2013-03-11 06:02:00,41.8,36.0,30.23,SSW,213,1.0,-999.0,81,-99.99,,,0.00,0,weatherlink.com 1.10,2013-03-11 13:02:00,
2013-03-11 06:17:00,41.7,37.0,30.22,SSW,213,2.0,-999.0,83,-99.99,,,0.00,0,weatherlink.com 1.10,2013-03-11 13:17:00,
2013-03-11 06:32:00,41.4,36.0,30.22,SSW,213,2.0,-999.0,81,-99.99,,,0.00,0,weatherlink.com 1.10,2013-03-11 13:32:00,
2013-03-11 06:47:00,40.4,36.0,30.21,SSW,213,2.0,-999.0,84,-99.99,,,0.00,0,weatherlink.com 1.10,2013-03-11 13:47:00,
2013-03-11 07:02:00,40.4,35.0,30.21,SSW,213,4.0,-999.0,82,-99.99,,,0.00,0,weatherlink.com 1.10,2013-03-11 14:02:00,
2013-03-11 07:17:00,39.5,35.0,30.21,SSW,213,4.0,-999.0,85,-99.99,,,0.00,0,weatherlink.com 1.10,2013-03-11 14:17:00,
2013-03-11 07:32:00,39.8,36.0,30.20,South,188,1.0,-999.0,85,-99.99,,,0.00,5,weatherlink.com 1.10,2013-03-11 14:32:00,
2013-03-11 07:47:00,40.4,36.0,30.20,South,188,0.0,-999.0,84,-99.99,,,0.00,18,weatherlink.com 1.10,2013-03-11 14:47:00,
2013-03-11 08:02:00,39.8,35.0,30.21,South,188,0.0,-999.0,83,-99.99,,,0.00,54,weatherlink.com 1.10,2013-03-11 15:02:00,
2013-03-11 08:17:00,38.9,34.0,30.21,East,88,0.0,-999.0,83,-99.99,,,0.00,53,weatherlink.com 1.10,2013-03-11 15:17:00,
2013-03-11 08:32:00,38.1,34.0,30.21,East,88,3.0,-999.0,86,-99.99,,,0.00,79,weatherlink.com 1.10,2013-03-11 15:32:00,
2013-03-11 08:47:00,38.7,35.0,30.21,East,89,0.0,-999.0,87,-99.99,,,0.00,79,weatherlink.com 1.10,2013-03-11 15:47:00,
2013-03-11 09:02:00,39.6,36.0,30.20,East,88,0.0,-999.0,86,-99.99,,,0.00,104,weatherlink.com 1.10,2013-03-11 16:02:00,
2013-03-11 09:17:00,40.1,36.0,30.21,East,88,0.0,-999.0,84,-99.99,,,0.00,139,weatherlink.com 1.10,2013-03-11 16:17:00,
2013-03-11 09:32:00,41.5,37.0,30.21,East,88,0.0,-999.0,83,-99.99,,,0.00,352,weatherlink.com 1.10,2013-03-11 16:32:00,
2013-03-11 09:47:00,43.1,37.0,30.21,East,86,0.0,-999.0,80,-99.99,,,0.00,397,weatherlink.com 1.10,2013-03-11 16:47:00,
2013-03-11 10:02:00,44.0,38.0,30.21,WNW,292,4.0,-999.0,78,-99.99,,,0.00,443,weatherlink.com 1.10,2013-03-11 17:02:00,
2013-03-11 10:17:00,45.9,38.0,30.20,WNW,294,3.0,-999.0,75,-99.99,,,0.00,555,weatherlink.com 1.10,2013-03-11 17:17:00,
2013-03-11 10:32:00,47.8,39.0,30.20,ENE,59,3.0,-999.0,71,-99.99,,,0.00,359,weatherlink.com 1.10,2013-03-11 17:32:00,
2013-03-11 10:47:00,48.1,39.0,30.20,ENE,67,2.0,-999.0,71,-99.99,,,0.00,299,weatherlink.com 1.10,2013-03-11 17:47:00,
2013-03-11 11:02:00,47.7,39.0,30.19,ENE,58,0.0,-999.0,72,-99.99,,,0.00,315,weatherlink.com 1.10,2013-03-11 18:02:00,
2013-03-11 11:17:00,47.9,39.0,30.20,NNE,17,1.0,-999.0,70,-99.99,,,0.00,294,weatherlink.com 1.10,2013-03-11 18:17:00,
2013-03-11 11:32:00,48.7,39.0,30.19,North,9,1.0,-999.0,69,-99.99,,,0.00,287,weatherlink.com 1.10,2013-03-11 18:32:00,
2013-03-11 11:47:00,48.7,39.0,30.19,NNW,346,3.0,-999.0,68,-99.99,,,0.00,330,weatherlink.com 1.10,2013-03-11 18:47:00,
2013-03-11 12:02:00,50.2,39.0,30.18,NE,42,1.0,-999.0,66,-99.99,,,0.00,445,weatherlink.com 1.10,2013-03-11 19:02:00,
2013-03-11 12:17:00,51.0,39.0,30.18,NE,44,4.0,-999.0,64,-99.99,,,0.00,612,weatherlink.com 1.10,2013-03-11 19:17:00,
2013-03-11 12:32:00,52.2,39.0,30.17,NNE,17,0.0,-999.0,62,-99.99,,,0.00,696,weatherlink.com 1.10,2013-03-11 19:32:00,
2013-03-11 12:47:00,53.2,39.0,30.17,NE,46,0.0,-999.0,59,-99.99,,,0.00,680,weatherlink.com 1.10,2013-03-11 19:47:00,
2013-03-11 13:02:00,53.9,39.0,30.17,NNE,33,4.0,-999.0,57,-99.99,,,0.00,640,weatherlink.com 1.10,2013-03-11 20:02:00,
2013-03-11 13:32:00,53.2,39.0,30.16,NW,321,8.0,-999.0,59,-99.99,,,0.00,332,weatherlink.com 1.10,2013-03-11 20:32:00,
2013-03-11 13:47:00,53.0,39.0,30.16,NNW,345,4.0,-999.0,59,-99.99,,,0.00,339,weatherlink.com 1.10,2013-03-11 20:47:00,
2013-03-11 14:03:00,52.9,40.0,30.15,NNW,338,11.0,-999.0,61,-99.99,,,0.00,346,weatherlink.com 1.10,2013-03-11 21:03:00,
2013-03-11 14:17:00,52.7,39.0,30.15,NW,314,5.0,-999.0,61,-99.99,,,0.00,318,weatherlink.com 1.10,2013-03-11 21:17:00,
2013-03-11 14:32:00,53.0,39.0,30.15,North,355,6.0,-999.0,60,-99.99,,,0.00,287,weatherlink.com 1.10,2013-03-11 21:32:00,
2013-03-11 14:47:00,52.9,39.0,30.15,NW,315,4.0,-999.0,60,-99.99,,,0.00,250,weatherlink.com 1.10,2013-03-11 21:47:00,
2013-03-11 15:02:00,53.3,39.0,30.15,NE,52,4.0,-999.0,58,-99.99,,,0.00,244,weatherlink.com 1.10,2013-03-11 22:02:00,
2013-03-11 15:17:00,53.4,39.0,30.14,NE,34,7.0,-999.0,58,-99.99,,,0.00,327,weatherlink.com 1.10,2013-03-11 22:17:00,
2013-03-11 15:32:00,53.8,39.0,30.14,NE,38,4.0,-999.0,58,-99.99,,,0.00,383,weatherlink.com 1.10,2013-03-11 22:32:00,
2013-03-11 15:47:00,53.9,40.0,30.14,NE,35,4.0,-999.0,59,-99.99,,,0.00,288,weatherlink.com 1.10,2013-03-11 22:47:00,
2013-03-11 16:02:00,54.0,40.0,30.14,East,90,2.0,-999.0,59,-99.99,,,0.00,371,weatherlink.com 1.10,2013-03-11 23:02:00,
2013-03-11 16:17:00,53.5,40.0,30.14,ENE,59,7.0,-999.0,60,-99.99,,,0.00,225,weatherlink.com 1.10,2013-03-11 23:17:00,
2013-03-11 16:32:00,53.5,40.0,30.14,East,96,7.0,-999.0,61,-99.99,,,0.00,248,weatherlink.com 1.10,2013-03-11 23:32:00,
2013-03-11 16:47:00,53.1,39.0,30.14,ENE,67,5.0,-999.0,60,-99.99,,,0.00,181,weatherlink.com 1.10,2013-03-11 23:47:00,
2013-03-11 17:02:00,52.8,40.0,30.14,NNE,28,9.0,-999.0,62,-99.99,,,0.00,169,weatherlink.com 1.10,2013-03-12 00:02:00,
2013-03-11 17:17:00,52.4,40.0,30.13,NNE,21,2.0,-999.0,63,-99.99,,,0.00,148,weatherlink.com 1.10,2013-03-12 00:17:00,
2013-03-11 17:32:00,52.6,39.0,30.13,NE,47,3.0,-999.0,61,-99.99,,,0.00,98,weatherlink.com 1.10,2013-03-12 00:32:00,
2013-03-11 17:47:00,51.9,40.0,30.13,NNE,17,2.0,-999.0,63,-99.99,,,0.00,83,weatherlink.com 1.10,2013-03-12 00:47:00,
2013-03-11 18:02:00,51.9,39.0,30.12,NNE,19,5.0,-999.0,62,-99.99,,,0.00,98,weatherlink.com 1.10,2013-03-12 01:02:00,
2013-03-11 18:32:00,51.8,39.0,30.11,North,350,0.0,-999.0,63,-99.99,,,0.00,44,weatherlink.com 1.10,2013-03-12 01:32:00,
2013-03-11 18:47:00,50.9,39.0,30.12,NNE,28,9.0,-999.0,63,-99.99,,,0.00,19,weatherlink.com 1.10,2013-03-12 01:47:00,
2013-03-11 19:02:00,50.0,39.0,30.12,NNW,348,2.0,-999.0,65,-99.99,,,0.00,5,weatherlink.com 1.10,2013-03-12 02:02:00,
2013-03-11 19:17:00,49.1,39.0,30.12,North,360,3.0,-999.0,68,-99.99,,,0.00,0,weatherlink.com 1.10,2013-03-12 02:17:00,
2013-03-11 19:32:00,47.8,38.0,30.12,ESE,115,5.0,-999.0,70,-99.99,,,0.00,0,weatherlink.com 1.10,2013-03-12 02:32:00,
2013-03-11 19:47:00,47.5,39.0,30.12,East,80,0.0,-999.0,71,-99.99,,,0.00,0,weatherlink.com 1.10,2013-03-12 02:47:00,
2013-03-11 20:02:00,47.2,39.0,30.13,East,80,0.0,-999.0,72,-99.99,,,0.00,0,weatherlink.com 1.10,2013-03-12 03:02:00,
2013-03-11 20:17:00,46.4,39.0,30.14,East,80,0.0,-999.0,74,-99.99,,,0.00,0,weatherlink.com 1.10,2013-03-12 03:17:00,
2013-03-11 20:32:00,45.4,38.0,30.13,East,80,0.0,-999.0,76,-99.99,,,0.00,0,weatherlink.com 1.10,2013-03-12 03:32:00,
2013-03-11 20:47:00,44.7,38.0,30.14,SW,223,4.0,-999.0,76,-99.99,,,0.00,0,weatherlink.com 1.10,2013-03-12 03:47:00,
2013-03-11 21:02:00,44.0,38.0,30.14,SSW,210,2.0,-999.0,79,-99.99,,,0.00,0,weatherlink.com 1.10,2013-03-12 04:02:00,
2013-03-11 21:32:00,44.0,38.0,30.13,SSW,196,4.0,-999.0,80,-99.99,,,0.00,0,weatherlink.com 1.10,2013-03-12 04:32:00,
2013-03-11 21:47:00,44.3,38.0,30.14,South,178,2.0,-999.0,79,-99.99,,,0.00,0,weatherlink.com 1.10,2013-03-12 04:47:00,
2013-03-11 22:02:00,44.0,38.0,30.13,South,179,6.0,-999.0,79,-99.99,,,0.00,0,weatherlink.com 1.10,2013-03-12 05:02:00,
2013-03-11 22:17:00,43.9,38.0,30.14,South,178,2.0,-999.0,79,-99.99,,,0.00,0,weatherlink.com 1.10,2013-03-12 05:17:00,
2013-03-11 22:32:00,44.0,38.0,30.14,South,178,4.0,-999.0,78,-99.99,,,0.00,0,weatherlink.com 1.10,2013-03-12 05:32:00,
2013-03-11 22:47:00,43.1,36.0,30.14,South,181,4.0,-999.0,77,-99.99,,,0.00,0,weatherlink.com 1.10,2013-03-12 05:47:00,
2013-03-11 23:02:00,42.5,36.0,30.15,South,184,3.0,-999.0,78,-99.99,,,0.00,0,weatherlink.com 1.10,2013-03-12 06:02:00,
2013-03-11 23:17:00,42.7,36.0,30.15,South,184,2.0,-999.0,77,-99.99,,,0.00,0,weatherlink.com 1.10,2013-03-12 06:17:00,
2013-03-11 23:32:00,40.1,35.0,30.15,SSW,198,5.0,-999.0,81,-99.99,,,0.00,0,weatherlink.com 1.10,2013-03-12 06:32:00,
2013-03-11 23:47:00,41.1,35.0,30.14,SW,216,4.0,-999.0,79,-99.99,,,0.00,0,weatherlink.com 1.10,2013-03-12 06:47:00,